Simultaneous Nadir Overpasses (SNOs) Predictions

Prediction of SNOs between GOES-14 and NPP Satellite Orbit:

Table of predicted SNOs for the next 14.0 days since TLE Epoch: 10/22/2022
Index Date Time (GOES-14) GOES-14 Lat,Lon NPP Lat,Lon Distance(km) Time Diff (sec)
1 10/24/2022 08:27:33 0.15,-104.35 0.35,-105.07 83.67 80
2 10/25/2022 08:06:09 0.18,-104.33 -0.69,-100.55 431.54 80
3 10/26/2022 20:28:04 -0.14,-104.20 -0.52,-105.84 187.07 80
4 10/27/2022 20:12:00 -0.16,-104.21 0.52,-101.31 330.49 80
5 10/29/2022 08:33:47 0.13,-104.34 0.65,-106.58 255.86 80
6 10/30/2022 08:12:23 0.15,-104.32 -0.39,-102.05 258.77 80
7 10/31/2022 20:34:18 -0.11,-104.14 -0.82,-107.34 365.33 80
8 11/01/2022 20:18:12 -0.12,-104.14 0.17,-102.81 151.92 80
9 11/03/2022 08:40:01 0.08,-104.32 0.94,-108.08 429.47 80
10 11/04/2022 08:18:35 0.11,-104.30 -0.05,-103.54 85.69 80
